< < Back
Terminal Aerodrome Forecast


Current Version              Previous Versions:   1  2  3  4  5  6  7  8  9  

Terminal Aerodrome Forecast

056
FTUS44 KMRX 090208 AAA
TAFTYS
TAF AMD
KTYS 090208Z 0902/0924 26012G25KT P6SM -SHSN SCT025 OVC050
      TEMPO 0902/0905 3SM -SHSN BR OVC025
     FM090600 26012KT P6SM -SHSN OVC025
     FM091200 26007KT 6SM -SHSN BR BKN025 OVC050
     FM091800 26012G20KT P6SM OVC050
     FM092200 26011KT P6SM OVC025=



Latest METAR

210
SAUS80 KWBC 090700 RRB
MTRTYS
METAR KTYS 090653Z 26012G18KT 10SM OVC035 M01/M07 A2978 RMK AO2 SLP086
T10111072


USA.gov is the U.S. government's official web portal to all federal, state and local government web resources and services.